{"data":{"norad_id":37166,"intl_designator":"2010-047B","name":"ZHEDA PIXING 1B","alt_names":[],"object_type":"PAYLOAD","status":"ACTIVE","operator":null,"country":"PRC","launch_date":"2010-09-22","launch_site_code":"JSC","launch_vehicle":null,"mission":null,"orbit_class":"UNKNOWN","rcs_meters":0.149,"size_class":null,"mass_kg":null,"dimensions":null,"purposes":[],"wikipedia_slug":null,"has_3d_model":false,"image_url":null,"decayed_at":null,"tle_current":{"epoch":"2026-05-25T03:35:49.910208Z","epoch_age_seconds":57982,"freshness":"FRESH","line1":"1 37166U 10047B   26145.14988322  .00001919  00000+0  19875-3 0  9992","line2":"2 37166  97.9468 123.1654 0019492   1.5190 358.6084 14.91118130846989","mean_motion":14.9111813,"eccentricity":0.0019492,"inclination_deg":97.9468,"raan_deg":123.1654,"arg_perigee_deg":1.519,"mean_anomaly_deg":358.6084,"bstar":0.00019875,"rev_number":84698,"period_min":96.57182560043,"perigee_km":580.85688117545,"apogee_km":608.03880592955,"semimajor_km":6972.5848435525,"source":"CELESTRAK","updated_at":"2026-05-25T13:37:55.223737Z"}}}